Flag for Colombia Weather past 2 weeks in Ibagué, Colombia

Now
72 °F

Scattered clouds.


Feels Like: 71 °F
Forecast: 56 / 73 °F
Wind: 2 mph from North

Location: Pereira / Matecana

Current Time: May 28, 2015 at 9:50:32 AM

Latest Report: May 28, 2015 at 9:00 AM


Visibility: N/A

Pressure: 30.10 "Hg

Humidity: 83%

Dew point: 66 °F

Location of IbaguéLocation

Historic Weather in Ibagué — Graph

°F

Ibagué temperature yesterday

Maximum temperature yesterday: 79 °F (at 2:00 PM)
Minimum temperature yesterday: 66 °F (at 5:00 AM)
Average temperature yesterday: 71 °F

Past Weeks' High & Low Weather Summary

 TemperatureHumidityPressure
High84 °F (May 19, 3:00 PM)100% (May 21, 6:00 AM)30.16 "Hg (May 21, 6:00 AM)
Low64 °F (May 16, 6:00 AM)54% (May 23, 3:00 PM)29.88 "Hg (May 13, 4:00 PM)
Average73 °F78%30.05 "Hg
* Reported May 13 8:00 AM — May 28 8:00 AM, Ibagué, Weather by CustomWeather, © 2015

Note: Actual official high and low records may vary slightly from our data, if they occured in-between our weather recording intervals... More about our weather records

Advertising

Ibagué weather history for previous 24 hours

 ConditionsComfort  
Time TempWeatherWind HumidityBarometerVisibility
8:00 AM
Thu, May 28
70 °FScattered clouds.2 mph83%30.08 "Hg5 mi
7:00 AM66 °FFog.2 mph100%30.07 "Hg1 mi
6:00 AM66 °FFog.2 mph100%30.05 "Hg1 mi
5:00 AM66 °FPassing clouds.2 mph100%30.03 "Hg4 mi
1:00 AM68 °FPassing clouds.3 mph88%30.04 "HgN/A
12:00 AM68 °FPassing clouds.3 mph88%30.06 "HgN/A
11:00 PM
Wed, May 27
68 °FPassing clouds.1 mph88%30.07 "HgN/A
10:00 PM70 °FPassing clouds.3 mph83%30.06 "HgN/A
9:00 PM70 °FPassing clouds.5 mph83%30.03 "HgN/A
8:00 PM70 °FPassing clouds.6 mph83%30.03 "HgN/A
7:00 PM70 °FPassing clouds.7 mph83%30.00 "HgN/A
6:00 PM70 °FScattered clouds.7 mph78%29.97 "HgN/A
5:00 PM70 °FScattered clouds.5 mph83%29.97 "HgN/A
4:00 PM72 °FScattered clouds.9 mph78%29.94 "Hg6 mi
3:00 PM79 °FScattered showers. Scattered clouds.3 mph65%29.97 "HgN/A
2:00 PM79 °FScattered clouds.2 mph61%30.00 "HgN/A
1:00 PM77 °FScattered clouds.7 mph74%30.03 "HgN/A
12:00 PM77 °FScattered clouds.3 mph74%30.04 "HgN/A
11:00 AM73 °FScattered clouds.7 mph78%30.07 "HgN/A
10:00 AM72 °FPartly sunny.5 mph83%30.09 "HgN/A
9:00 AM70 °FBroken clouds.2 mph83%30.09 "HgN/A
Weather by CustomWeather, © 2015

See weather overviewHow to use our weather pages